Juneau, AK

6:07 PM AKDT on March 26, 2017 (GMT -0800)
Juneau International

Weather History for PAJN - March, 2012

Change the Weather History Date:

Thursday, March 15, 2012

  Actual Average Record
Temperature  
Mean Temperature 37 °F 33 °F  
Max Temperature 44 °F 39 °F 47 °F (1981)
Min Temperature 29 °F 28 °F 2 °F (2006)
Degree Days  
Heating Degree Days 28 32  
Month to date heating degree days 480 490  
Since 1 July heating degree days 6373 6327  
Cooling Degree Days 0 0  
Month to date cooling degree days 0 0  
Year to date cooling degree days 0 0  
Moisture  
Dew Point 25 °F    
Average Humidity 62    
Maximum Humidity 85    
Minimum Humidity 39    
Precipitation  
Precipitation 0.00 in 0.12 in 0.51 in (1946)
Month to date precipitation 2.67 1.95  
Year to date precipitation 12.20 11.43  
Snow  
Snow 0.00 in 0.40 in 5.30 in (1964)
Month to date snowfall 12.1 6.9  
Since 1 July snowfall 129.0 80.9  
Snow Depth T in    
Sea Level Pressure  
Sea Level Pressure 29.08 in    
Wind  
Wind Speed 2 mph (South)    
Max Wind Speed 13 mph    
Max Gust Speed 16 mph    
Visibility 10 miles    
Events      
T = Trace of Precipitation, MM = Missing Value Source: NWS Daily Summary

Daily Weather History Graph

Daily Weather History Graph

Search for Another Location

Airport or City:

Trip Planner

Search our weather history database for the weather conditions in past years. The results will help you decide how hot, cold, wet, or windy it might be!

Date:

Astronomy

Mar. 15, 2012 Rise Set
Actual Time 7:12 AM AKDT 7:02 PM AKDT
Civil Twilight 6:33 AM AKDT 7:42 PM AKDT
Nautical Twilight 5:46 AM AKDT 8:29 PM AKDT
Astronomical Twilight 4:57 AM AKDT 9:18 PM AKDT
Moon 4:08 AM AKDT (3/15) 11:07 AM AKDT (3/15)
Length of Visible Light 13h 09m
Length of Day
11h 50m
Last Quarter, 42% of the Moon is Illuminated
Mar 15
Last Quarter
Mar 22
New
Mar 30
First Quarter
Apr 6
Full
Apr 13
Last Quarter

Hourly Weather History & Observations

Time (AKDT) Temp. Windchill Dew Point Humidity Pressure Visibility Wind Dir Wind Speed Gust Speed Precip Events Conditions
12:53 AM 32.0 °F 28.7 °F 27.0 °F 82% 29.17 in 10.0 mi WSW 3.5 mph - N/A   Mostly Cloudy
1:53 AM 30.9 °F - 26.1 °F 82% 29.17 in 10.0 mi Calm Calm - N/A   Overcast
2:53 AM 32.0 °F - 26.1 °F 79% 29.15 in 10.0 mi Calm Calm - N/A   Overcast
3:53 AM 30.9 °F - 26.1 °F 82% 29.14 in 10.0 mi Calm Calm - N/A   Overcast
4:53 AM 30.0 °F - 26.1 °F 85% 29.13 in 10.0 mi Calm Calm - N/A   Overcast
5:53 AM 30.9 °F - 27.0 °F 85% 29.11 in 10.0 mi Calm Calm - N/A   Overcast
6:53 AM 30.9 °F - 26.1 °F 82% 29.09 in 10.0 mi Calm Calm - N/A   Overcast
7:53 AM 30.9 °F 27.5 °F 27.0 °F 85% 29.09 in 10.0 mi North 3.5 mph - N/A   Overcast
8:53 AM 34.0 °F 31.0 °F 27.0 °F 75% 29.07 in 10.0 mi WNW 3.5 mph - N/A   Mostly Cloudy
9:53 AM 36.0 °F 31.1 °F 27.0 °F 70% 29.06 in 10.0 mi West 5.8 mph - N/A   Mostly Cloudy
10:53 AM 37.9 °F 34.4 °F 25.0 °F 60% 29.04 in 10.0 mi SW 4.6 mph - N/A   Scattered Clouds
11:53 AM 39.9 °F - 25.0 °F 55% 29.03 in 10.0 mi Calm Calm - N/A   Scattered Clouds
12:53 PM 42.1 °F 37.7 °F 21.0 °F 43% 29.02 in 10.0 mi ESE 6.9 mph - N/A   Scattered Clouds
1:53 PM 43.0 °F 38.8 °F 21.0 °F 42% 29.02 in 10.0 mi ESE 6.9 mph 16.1 mph N/A   Scattered Clouds
2:53 PM 43.0 °F 38.8 °F 19.9 °F 40% 29.01 in 10.0 mi ENE 6.9 mph - N/A   Overcast
3:53 PM 43.0 °F 38.2 °F 19.0 °F 38% 29.02 in 10.0 mi SSE 8.1 mph - N/A   Overcast
4:53 PM 42.1 °F 40.2 °F 21.0 °F 43% 29.03 in 10.0 mi ESE 3.5 mph - N/A   Overcast
5:53 PM 42.1 °F 40.2 °F 21.0 °F 43% 29.04 in 10.0 mi SSE 3.5 mph - N/A   Overcast
6:53 PM 39.0 °F 36.8 °F 27.0 °F 62% 29.04 in 10.0 mi NW 3.5 mph - N/A   Overcast
7:53 PM 37.0 °F - 27.0 °F 67% 29.05 in 10.0 mi Calm Calm - N/A   Overcast
8:53 PM 33.1 °F - 27.0 °F 78% 29.07 in 10.0 mi Calm Calm - N/A   Mostly Cloudy
9:53 PM 30.9 °F - 26.1 °F 82% 29.08 in 10.0 mi Calm Calm - N/A   Scattered Clouds
10:53 PM 30.9 °F - 27.0 °F 85% 29.10 in 10.0 mi Calm Calm - N/A   Overcast
11:53 PM 32.0 °F - 27.0 °F 82% 29.11 in 10.0 mi Calm Calm - N/A   Overcast